| time (UTC) | temp C | wind direction | speed KPH | gust KPH | rain 1hr cm | rain 24hr cm | rain mn cm | humidity % | barometer mb |
| 20260506080706 | 11 | 127 | 0.0 | 3.2 | 0.00 | 0.36 | 0.00 | 87 | 1006.4 |
| 20260506080205 | 11 | 95 | 0.0 | 3.2 | 0.00 | 0.36 | 0.00 | 88 | 1006.4 |
| 20260506073205 | 10 | 95 | 0.0 | 1.6 | 0.00 | 0.36 | 0.00 | 96 | 1006.6 |
| 20260506072705 | 9 | 95 | 0.0 | 1.6 | 0.00 | 0.36 | 0.00 | 97 | 1006.6 |
| 20260506072205 | 9 | 95 | 0.0 | 1.6 | 0.00 | 0.36 | 0.00 | 97 | 1006.6 |
| 20260506071705 | 9 | 67 | 0.0 | 0.0 | 0.00 | 0.36 | 0.00 | 97 | 1006.6 |
| 20260506071205 | 8 | 66 | 0.0 | 0.0 | 0.00 | 0.36 | 0.00 | 97 | 1006.6 |
| 20260506070705 | 8 | 66 | 0.0 | 0.0 | 0.00 | 0.36 | 0.00 | 97 | 1006.6 |
| 20260506070205 | 8 | 66 | 0.0 | 0.0 | 0.00 | 0.36 | 0.00 | 97 | 1006.6 |
| 20260506062205 | 7 | 1 | 0.0 | 0.0 | 0.00 | 0.36 | 0.00 | 98 | 1006.6 |
| 20260506061705 | 7 | 1 | 0.0 | 1.6 | 0.00 | 0.38 | 0.00 | 98 | 1006.6 |
| 20260506061205 | 7 | 1 | 0.0 | 1.6 | 0.00 | 0.38 | 0.00 | 98 | 1006.7 |
| 20260506060705 | 7 | 1 | 0.0 | 1.6 | 0.00 | 0.38 | 0.00 | 98 | 1006.8 |
| 20260506051205 | 6 | 46 | 0.0 | 3.2 | 0.00 | 0.38 | 0.00 | 97 | 1006.9 |
| 20260506050705 | 6 | 264 | 0.0 | 0.0 | 0.00 | 0.38 | 0.00 | 97 | 1006.8 |
| 20260506050205 | 6 | 264 | 0.0 | 0.0 | 0.00 | 0.38 | 0.00 | 97 | 1006.8 |
| 20260506044705 | 5 | 254 | 0.0 | 1.6 | 0.00 | 0.38 | 0.00 | 97 | 1006.9 |
| 20260506044205 | 5 | 254 | 0.0 | 1.6 | 0.00 | 0.38 | 0.00 | 97 | 1007.0 |
| 20260506043705 | 5 | 254 | 0.0 | 3.2 | 0.00 | 0.38 | 0.00 | 97 | 1007.0 |
| 20260506043206 | 5 | 254 | 0.0 | 3.2 | 0.00 | 0.38 | 0.00 | 97 | 1007.1 |
| 20260506042705 | 5 | 254 | 0.0 | 3.2 | 0.00 | 0.38 | 0.00 | 97 | 1007.1 |
| 20260506041705 | 5 | 254 | 0.0 | 1.6 | 0.00 | 0.38 | 0.00 | 97 | 1007.0 |
| 20260506041205 | 5 | 254 | 0.0 | 3.2 | 0.00 | 0.38 | 0.00 | 97 | 1007.1 |
| 20260506040705 | 5 | 254 | 0.0 | 3.2 | 0.00 | 0.38 | 0.00 | 97 | 1007.2 |
| 20260506040205 | 5 | 254 | 0.0 | 3.2 | 0.00 | 0.38 | 0.00 | 97 | 1007.2 |
| 20260506035705 | 5 | 313 | 0.0 | 3.2 | 0.00 | 0.38 | 0.00 | 97 | 1007.2 |
| 20260506035204 | 5 | 253 | 0.0 | 3.2 | 0.00 | 0.38 | 0.00 | 97 | 1007.4 |
| 20260506034205 | 5 | 314 | 0.0 | 1.6 | 0.00 | 0.38 | 0.00 | 97 | 1007.5 |
| 20260506033704 | 5 | 314 | 0.0 | 1.6 | 0.00 | 0.38 | 0.00 | 97 | 1007.5 |
| 20260506033205 | 5 | 314 | 0.0 | 0.0 | 0.00 | 0.38 | 0.00 | 97 | 1007.5 |
| 20260506032205 | 5 | 314 | 0.0 | 0.0 | 0.00 | 0.38 | 0.00 | 96 | 1007.5 |
| 20260506031705 | 5 | 314 | 0.0 | 3.2 | 0.00 | 0.38 | 0.00 | 97 | 1007.4 |
| 20260506031205 | 5 | 314 | 0.0 | 3.2 | 0.00 | 0.38 | 0.00 | 97 | 1007.4 |
| 20260506030205 | 5 | 314 | 0.0 | 3.2 | 0.00 | 0.38 | 0.00 | 97 | 1007.5 |
| 20260506025705 | 5 | 314 | 0.0 | 3.2 | 0.00 | 0.38 | 0.00 | 97 | 1007.6 |
| 20260506025206 | 5 | 314 | 0.0 | 3.2 | 0.00 | 0.38 | 0.00 | 97 | 1007.8 |
| 20260506024705 | 5 | 314 | 0.0 | 1.6 | 0.00 | 0.38 | 0.00 | 97 | 1007.8 |
| 20260506024205 | 5 | 314 | 0.0 | 1.6 | 0.00 | 0.38 | 0.00 | 97 | 1007.8 |
| 20260506023726 | 5 | 314 | 0.0 | 1.6 | 0.00 | 0.38 | 0.00 | 97 | 1007.8 |
| 20260506023205 | 5 | 314 | 0.0 | 3.2 | 0.00 | 0.38 | 0.00 | 97 | 1007.9 |
| 20260506022206 | 5 | 314 | 0.0 | 3.2 | 0.00 | 0.38 | 0.00 | 96 | 1008.1 |
| 20260506021705 | 6 | 314 | 1.6 | 3.2 | 0.00 | 0.38 | 0.00 | 96 | 1008.1 |
| 20260506021205 | 6 | 314 | 0.0 | 3.2 | 0.00 | 0.38 | 0.00 | 97 | 1008.1 |
| 20260506020705 | 6 | 314 | 0.0 | 0.0 | 0.00 | 0.38 | 0.00 | 97 | 1008.1 |
| 20260506020205 | 6 | 314 | 0.0 | 0.0 | 0.00 | 0.38 | 0.00 | 97 | 1008.0 |
| 20260506015705 | 6 | 314 | 0.0 | 3.2 | 0.00 | 0.38 | 0.00 | 97 | 1008.1 |
| 20260506015205 | 6 | 314 | 0.0 | 3.2 | 0.00 | 0.38 | 0.00 | 97 | 1008.1 |
| 20260506014706 | 6 | 314 | 0.0 | 1.6 | 0.00 | 0.38 | 0.00 | 97 | 1008.2 |
| 20260506013705 | 6 | 314 | 0.0 | 3.2 | 0.00 | 0.38 | 0.00 | 97 | 1008.2 |
| 20260506013205 | 6 | 314 | 0.0 | 3.2 | 0.00 | 0.38 | 0.00 | 97 | 1008.3 |
| 20260506012705 | 6 | 314 | 0.0 | 4.8 | 0.00 | 0.38 | 0.00 | 97 | 1008.4 |
| 20260506012205 | 6 | 314 | 1.6 | 4.8 | 0.00 | 0.38 | 0.00 | 97 | 1008.4 |
| 20260506011705 | 6 | 314 | 1.6 | 4.8 | 0.00 | 0.38 | 0.00 | 97 | 1008.6 |
| 20260506011205 | 6 | 314 | 0.0 | 3.2 | 0.00 | 0.38 | 0.00 | 97 | 1008.6 |
| 20260506010706 | 6 | 306 | 0.0 | 1.6 | 0.00 | 0.38 | 0.00 | 97 | 1008.9 |
| 20260506010205 | 6 | 306 | 0.0 | 3.2 | 0.00 | 0.38 | 0.00 | 97 | 1008.8 |
| 20260506005706 | 6 | 306 | 0.0 | 3.2 | 0.00 | 0.38 | 0.00 | 97 | 1008.4 |
| 20260506005206 | 6 | 306 | 0.0 | 3.2 | 0.00 | 0.38 | 0.00 | 97 | 1008.6 |
| 20260506004705 | 6 | 306 | 0.0 | 0.0 | 0.00 | 0.38 | 0.00 | 97 | 1008.7 |
| 20260506004205 | 5 | 306 | 0.0 | 0.0 | 0.00 | 0.38 | 0.00 | 96 | 1008.8 |
| 20260506003705 | 5 | 306 | 0.0 | 0.0 | 0.00 | 0.38 | 0.00 | 96 | 1008.7 |
| 20260506002705 | 5 | 306 | 0.0 | 0.0 | 0.00 | 0.38 | 0.00 | 96 | 1008.8 |
| 20260506002206 | 5 | 306 | 0.0 | 0.0 | 0.00 | 0.38 | 0.00 | 96 | 1008.7 |
| 20260506001705 | 5 | 306 | 0.0 | 0.0 | 0.00 | 0.38 | 0.00 | 96 | 1008.8 |
| 20260506000705 | 5 | 306 | 0.0 | 1.6 | 0.00 | 0.38 | 0.00 | 96 | 1009.0 |
| 20260506000205 | 6 | 306 | 0.0 | 1.6 | 0.00 | 0.38 | 0.00 | 96 | 1009.0 |
| 20260505235705 | 6 | 306 | 0.0 | 3.2 | 0.00 | 0.38 | 0.00 | 96 | 1009.0 |
| 20260505235204 | 6 | 306 | 0.0 | 3.2 | 0.00 | 0.38 | 0.00 | 96 | 1009.0 |
| 20260505234732 | 6 | 306 | 0.0 | 3.2 | 0.00 | 0.38 | 0.00 | 96 | 1009.1 |
| 20260505234205 | 6 | 306 | 0.0 | 0.0 | 0.00 | 0.38 | 0.00 | 96 | 1009.2 |
| 20260505233704 | 6 | 306 | 0.0 | 0.0 | 0.00 | 0.38 | 0.00 | 96 | 1009.2 |
| 20260505232722 | 6 | 306 | 0.0 | 0.0 | 0.00 | 0.38 | 0.00 | 95 | 1009.3 |
| 20260505231705 | 6 | 306 | 0.0 | 0.0 | 0.00 | 0.38 | 0.00 | 95 | 1009.3 |
| 20260505231205 | 6 | 306 | 0.0 | 0.0 | 0.00 | 0.38 | 0.00 | 95 | 1009.3 |
| 20260505230705 | 6 | 306 | 0.0 | 1.6 | 0.00 | 0.38 | 0.00 | 95 | 1009.4 |
| 20260505230205 | 6 | 306 | 0.0 | 3.2 | 0.00 | 0.38 | 0.00 | 95 | 1009.5 |
| 20260505225705 | 6 | 306 | 0.0 | 3.2 | 0.00 | 0.38 | 0.00 | 95 | 1009.5 |
| 20260505225205 | 6 | 306 | 0.0 | 3.2 | 0.00 | 0.38 | 0.00 | 95 | 1009.4 |
| 20260505224705 | 6 | 306 | 0.0 | 3.2 | 0.00 | 0.38 | 0.00 | 95 | 1009.4 |
| 20260505224205 | 6 | 306 | 0.0 | 1.6 | 0.00 | 0.38 | 0.00 | 95 | 1009.5 |
| 20260505223705 | 6 | 306 | 0.0 | 1.6 | 0.00 | 0.38 | 0.00 | 95 | 1009.5 |
| 20260505223205 | 6 | 306 | 0.0 | 1.6 | 0.00 | 0.38 | 0.00 | 95 | 1009.5 |
| 20260505222706 | 6 | 306 | 0.0 | 0.0 | 0.00 | 0.38 | 0.00 | 94 | 1009.4 |
| 20260505222205 | 6 | 306 | 0.0 | 0.0 | 0.00 | 0.38 | 0.00 | 94 | 1009.4 |
| 20260505221704 | 6 | 306 | 0.0 | 3.2 | 0.00 | 0.38 | 0.00 | 94 | 1009.3 |
| 20260505215705 | 7 | 274 | 0.0 | 6.4 | 0.00 | 0.38 | 0.38 | 94 | 1009.4 |
| 20260505215205 | 7 | 61 | 1.6 | 6.4 | 0.00 | 0.38 | 0.38 | 94 | 1009.4 |
| 20260505214717 | 7 | 41 | 1.6 | 4.8 | 0.00 | 0.38 | 0.38 | 94 | 1009.5 |
| 20260505214205 | 7 | 68 | 0.0 | 0.0 | 0.00 | 0.38 | 0.38 | 94 | 1009.5 |
| 20260505213205 | 7 | 143 | 0.0 | 1.6 | 0.03 | 0.38 | 0.38 | 94 | 1009.6 |
| 20260505212708 | 8 | 143 | 0.0 | 1.6 | 0.03 | 0.38 | 0.38 | 94 | 1009.6 |
| 20260505212205 | 8 | 143 | 0.0 | 1.6 | 0.03 | 0.38 | 0.38 | 94 | 1009.6 |
| 20260505211705 | 8 | 143 | 0.0 | 1.6 | 0.03 | 0.38 | 0.38 | 94 | 1009.6 |
| 20260505211205 | 8 | 205 | 0.0 | 6.4 | 0.03 | 0.38 | 0.38 | 94 | 1009.7 |
| 20260505210205 | 8 | 205 | 3.2 | 6.4 | 0.03 | 0.38 | 0.38 | 94 | 1009.6 |
| 20260505205205 | 8 | 259 | 1.6 | 6.4 | 0.03 | 0.38 | 0.38 | 94 | 1009.7 |
| 20260505204706 | 8 | 217 | 1.6 | 8.0 | 0.03 | 0.38 | 0.38 | 94 | 1009.6 |
| 20260505204205 | 8 | 218 | 1.6 | 8.0 | 0.00 | 0.36 | 0.36 | 94 | 1009.6 |
| 20260505203705 | 8 | 231 | 3.2 | 8.0 | 0.00 | 0.36 | 0.36 | 93 | 1009.6 |
| 20260505203205 | 8 | 250 | 3.2 | 8.0 | 0.00 | 0.36 | 0.36 | 93 | 1009.6 |
| 20260505202705 | 8 | 234 | 3.2 | 8.0 | 0.00 | 0.36 | 0.36 | 93 | 1009.5 |
| 20260505202205 | 8 | 239 | 1.6 | 9.7 | 0.00 | 0.36 | 0.36 | 93 | 1009.5 |
| 20260505201705 | 8 | 163 | 1.6 | 9.7 | 0.00 | 0.36 | 0.36 | 93 | 1009.5 |
| 20260505201205 | 8 | 158 | 1.6 | 9.7 | 0.00 | 0.36 | 0.36 | 93 | 1009.3 |
| 20260505200705 | 8 | 233 | 0.0 | 4.8 | 0.00 | 0.36 | 0.36 | 92 | 1009.2 |
| 20260505200205 | 8 | 276 | 1.6 | 4.8 | 0.00 | 0.36 | 0.36 | 92 | 1009.1 |
| 20260505195205 | 9 | 223 | 0.0 | 4.8 | 0.00 | 0.36 | 0.36 | 92 | 1009.1 |
| 20260505194705 | 9 | 223 | 1.6 | 6.4 | 0.00 | 0.36 | 0.36 | 92 | 1009.0 |
| 20260505194205 | 9 | 223 | 1.6 | 6.4 | 0.00 | 0.36 | 0.36 | 91 | 1009.1 |
| 20260505193205 | 9 | 209 | 1.6 | 4.8 | 0.05 | 0.36 | 0.36 | 91 | 1009.1 |
| 20260505192705 | 9 | 231 | 1.6 | 4.8 | 0.05 | 0.36 | 0.36 | 91 | 1009.1 |
| 20260505192205 | 9 | 228 | 1.6 | 4.8 | 0.05 | 0.36 | 0.36 | 91 | 1009.1 |
| 20260505191705 | 9 | 227 | 1.6 | 4.8 | 0.08 | 0.36 | 0.36 | 91 | 1008.9 |
| 20260505190705 | 10 | 224 | 1.6 | 9.7 | 0.15 | 0.36 | 0.36 | 91 | 1008.8 |
| 20260505185705 | 10 | 220 | 3.2 | 9.7 | 0.15 | 0.36 | 0.36 | 91 | 1008.8 |
| 20260505185205 | 10 | 253 | 3.2 | 9.7 | 0.15 | 0.36 | 0.36 | 91 | 1008.8 |
| 20260505184706 | 10 | 202 | 3.2 | 8.0 | 0.15 | 0.36 | 0.36 | 91 | 1008.9 |
| 20260505184205 | 10 | 179 | 3.2 | 11.3 | 0.13 | 0.33 | 0.33 | 90 | 1008.8 |
| 20260505183705 | 10 | 188 | 3.2 | 11.3 | 0.10 | 0.33 | 0.33 | 89 | 1009.0 |
| 20260505183205 | 10 | 195 | 4.8 | 11.3 | 0.10 | 0.33 | 0.33 | 89 | 1009.2 |
| 20260505182706 | 11 | 209 | 4.8 | 16.1 | 0.08 | 0.30 | 0.30 | 88 | 1009.2 |
| 20260505181205 | 11 | 237 | 6.4 | 12.9 | 0.00 | 0.23 | 0.23 | 86 | 1009.1 |
| 20260505180706 | 11 | 233 | 6.4 | 12.9 | 0.00 | 0.23 | 0.23 | 84 | 1008.8 |
| 20260505180205 | 11 | 222 | 6.4 | 12.9 | 0.00 | 0.23 | 0.23 | 83 | 1008.7 |
| 20260505175705 | 12 | 217 | 6.4 | 12.9 | 0.00 | 0.23 | 0.23 | 83 | 1008.7 |
| 20260505175205 | 12 | 272 | 6.4 | 16.1 | 0.00 | 0.23 | 0.23 | 83 | 1008.7 |
| 20260505174205 | 12 | 315 | 6.4 | 16.1 | 0.00 | 0.23 | 0.23 | 83 | 1008.7 |
| 20260505173705 | 12 | 269 | 4.8 | 11.3 | 0.00 | 0.23 | 0.23 | 82 | 1008.6 |
| 20260505173205 | 12 | 294 | 4.8 | 8.0 | 0.00 | 0.23 | 0.23 | 82 | 1008.6 |
| 20260505172705 | 12 | 298 | 4.8 | 9.7 | 0.00 | 0.23 | 0.23 | 82 | 1008.6 |
| 20260505172205 | 12 | 262 | 4.8 | 9.7 | 0.00 | 0.23 | 0.23 | 82 | 1008.6 |
| 20260505171705 | 12 | 291 | 4.8 | 9.7 | 0.00 | 0.23 | 0.23 | 81 | 1008.6 |
| 20260505171204 | 12 | 279 | 3.2 | 9.7 | 0.00 | 0.23 | 0.23 | 80 | 1008.4 |
| 20260505170705 | 13 | 248 | 4.8 | 12.9 | 0.00 | 0.23 | 0.23 | 82 | 1008.6 |
| 20260505170205 | 13 | 258 | 6.4 | 12.9 | 0.00 | 0.23 | 0.23 | 79 | 1008.4 |
| 20260505165205 | 13 | 224 | 1.6 | 8.0 | 0.00 | 0.23 | 0.23 | 82 | 1008.6 |
| 20260505164705 | 13 | 265 | 1.6 | 9.7 | 0.00 | 0.23 | 0.23 | 83 | 1008.4 |
| 20260505164205 | 13 | 219 | 1.6 | 12.9 | 0.00 | 0.23 | 0.23 | 83 | 1008.4 |
| 20260505163705 | 13 | 239 | 3.2 | 12.9 | 0.00 | 0.23 | 0.23 | 85 | 1008.6 |
| 20260505162705 | 12 | 273 | 1.6 | 9.7 | 0.00 | 0.23 | 0.23 | 88 | 1008.6 |
| 20260505162205 | 12 | 191 | 3.2 | 9.7 | 0.00 | 0.23 | 0.23 | 87 | 1008.6 |
| 20260505161734 | 12 | 220 | 3.2 | 6.4 | 0.00 | 0.23 | 0.23 | 86 | 1008.6 |
| 20260505161205 | 12 | 243 | 1.6 | 6.4 | 0.03 | 0.23 | 0.23 | 86 | 1008.6 |
| 20260505160205 | 12 | 1 | 1.6 | 4.8 | 0.20 | 0.23 | 0.23 | 88 | 1008.4 |
| 20260505153205 | 11 | 182 | 3.2 | 9.7 | 0.20 | 0.23 | 0.23 | 91 | 1008.7 |
| 20260505152705 | 11 | 213 | 3.2 | 9.7 | 0.20 | 0.23 | 0.23 | 90 | 1008.8 |
| 20260505151730 | 11 | 224 | 3.2 | 17.7 | 0.20 | 0.23 | 0.23 | 85 | 1008.6 |
| 20260505151205 | 12 | 176 | 6.4 | 19.3 | 0.15 | 0.20 | 0.18 | 83 | 1008.4 |
| 20260505150705 | 13 | 194 | 9.7 | 19.3 | 0.05 | 0.08 | 0.05 | 81 | 1008.8 |
| 20260505140205 | 15 | 206 | 3.2 | 8.0 | 0.00 | 0.05 | 0.03 | 70 | 1007.9 |
| 20260505124205 | 13 | 111 | 1.6 | 8.0 | 0.00 | 0.05 | 0.03 | 81 | 1008.6 |
| 20260505123705 | 13 | 92 | 1.6 | 4.8 | 0.00 | 0.05 | 0.03 | 80 | 1008.7 |
| 20260505123205 | 13 | 113 | 0.0 | 4.8 | 0.00 | 0.05 | 0.03 | 82 | 1008.7 |
| 20260505122227 | 13 | 111 | 0.0 | 6.4 | 0.00 | 0.05 | 0.03 | 84 | 1008.7 |
| 20260505121705 | 13 | 94 | 1.6 | 6.4 | 0.00 | 0.05 | 0.03 | 85 | 1008.8 |
| 20260505120705 | 13 | 67 | 1.6 | 6.4 | 0.00 | 0.05 | 0.03 | 83 | 1008.8 |
| 20260505120205 | 13 | 120 | 1.6 | 8.0 | 0.00 | 0.05 | 0.03 | 83 | 1008.9 |
| 20260505115705 | 13 | 73 | 1.6 | 8.0 | 0.00 | 0.05 | 0.03 | 83 | 1008.9 |
| 20260505115205 | 13 | 74 | 1.6 | 8.0 | 0.00 | 0.05 | 0.03 | 81 | 1008.9 |
| 20260505114706 | 13 | 108 | 1.6 | 6.4 | 0.00 | 0.05 | 0.03 | 81 | 1009.0 |
| 20260505114205 | 13 | 90 | 1.6 | 4.8 | 0.00 | 0.05 | 0.03 | 84 | 1009.0 |
| 20260505113705 | 13 | 188 | 0.0 | 4.8 | 0.00 | 0.05 | 0.03 | 81 | 1009.0 |
| 20260505113205 | 13 | 113 | 0.0 | 9.7 | 0.00 | 0.05 | 0.03 | 82 | 1009.1 |
| 20260505112705 | 13 | 131 | 0.0 | 9.7 | 0.00 | 0.05 | 0.03 | 81 | 1009.1 |
| 20260505112205 | 13 | 130 | 3.2 | 12.9 | 0.00 | 0.05 | 0.03 | 81 | 1009.1 |
| 20260505111205 | 13 | 68 | 6.4 | 12.9 | 0.00 | 0.05 | 0.03 | 82 | 1009.1 |
| 20260505110705 | 13 | 51 | 4.8 | 11.3 | 0.00 | 0.05 | 0.03 | 81 | 1009.0 |
| 20260505110205 | 13 | 44 | 4.8 | 11.3 | 0.00 | 0.05 | 0.03 | 82 | 1009.0 |
| 20260505102205 | 13 | 73 | 3.2 | 12.9 | 0.00 | 0.05 | 0.03 | 83 | 1009.1 |
| 20260505101705 | 13 | 89 | 4.8 | 11.3 | 0.00 | 0.05 | 0.03 | 82 | 1009.1 |
| 20260505100705 | 13 | 78 | 3.2 | 9.7 | 0.00 | 0.05 | 0.03 | 83 | 1009.2 |
| 20260505100205 | 13 | 87 | 1.6 | 4.8 | 0.00 | 0.05 | 0.03 | 83 | 1009.2 |
| 20260505095705 | 13 | 153 | 1.6 | 4.8 | 0.00 | 0.05 | 0.03 | 84 | 1009.2 |
| 20260505095205 | 12 | 56 | 0.0 | 6.4 | 0.00 | 0.05 | 0.03 | 84 | 1009.2 |
| 20260505094705 | 12 | 70 | 1.6 | 6.4 | 0.00 | 0.05 | 0.03 | 85 | 1009.2 |
| 20260505093705 | 12 | 314 | 1.6 | 4.8 | 0.00 | 0.05 | 0.03 | 84 | 1009.2 |
| 20260505093205 | 12 | 314 | 1.6 | 4.8 | 0.00 | 0.05 | 0.03 | 86 | 1009.3 |
| 20260505092705 | 12 | 311 | 1.6 | 4.8 | 0.00 | 0.05 | 0.03 | 86 | 1009.3 |
| 20260505092205 | 12 | 286 | 1.6 | 4.8 | 0.00 | 0.05 | 0.03 | 84 | 1009.3 |
| 20260505091705 | 12 | 278 | 3.2 | 6.4 | 0.00 | 0.05 | 0.03 | 84 | 1009.4 |
| 20260505090705 | 12 | 279 | 3.2 | 8.0 | 0.00 | 0.05 | 0.03 | 84 | 1009.5 |
| 20260505090205 | 12 | 265 | 3.2 | 8.0 | 0.00 | 0.05 | 0.03 | 83 | 1009.5 |
| 20260505085705 | 12 | 265 | 3.2 | 8.0 | 0.00 | 0.05 | 0.03 | 83 | 1009.4 |
| 20260505085205 | 12 | 264 | 3.2 | 8.0 | 0.00 | 0.05 | 0.03 | 84 | 1009.5 |
| 20260505084705 | 12 | 293 | 1.6 | 0.0 | 0.00 | 0.05 | 0.03 | 85 | 1009.5 |
| 20260505083205 | 12 | 153 | 0.0 | 3.2 | 0.00 | 0.05 | 0.03 | 87 | 1009.6 |
| 20260505082705 | 12 | 146 | 0.0 | 1.6 | 0.00 | 0.05 | 0.03 | 88 | 1009.6 |
| 20260505082205 | 12 | 98 | 0.0 | 3.2 | 0.00 | 0.05 | 0.03 | 86 | 1009.6 |
| 20260505081705 | 12 | 98 | 0.0 | 3.2 | 0.00 | 0.05 | 0.03 | 86 | 1009.6 |
| 20260505081205 | 11 | 98 | 0.0 | 3.2 | 0.00 | 0.05 | 0.03 | 88 | 1009.6 |